Regional Weather Roundup
Issued by NWS Northern Indiana

Home | Current Version | Previous Version | Graphics & Text | Print | Product List | Glossary On
Versions: 1 2 3 4 5 6 7 8 9 10 11 12 13 14 15 16 17 18 19 20 21 22 23 24 25 26 27 28 29 30 31 32 33 34 35 36 37 38 39 40 41 42 43 44 45 46 47 48 49 50
000
ASUS43 KIWX 271610
RWRIWX

KIWX WEATHER ROUNDUP
NATIONAL WEATHER SERVICE NORTHERN INDIANA
1200 PM EDT MON MAR 27 2017

NOTE: "FAIR" INDICATES FEW OR NO CLOUDS BELOW 12,000 FEET WITH NO
SIGNIFICANT WEATHER AND/OR OBSTRUCTIONS TO VISIBILITY.

* THESE STATIONS ARE NOT UNDER NWS QUALITY CONTROL. THEY ALSO MAY NOT
  REPORT WEATHER SUCH AS PRECIPITATION OR FOG.

INZ001>027-271700-
NORTHERN INDIANA

CITY           SKY/WX    TMP DP  RH WIND       PRES   REMARKS
GARY*          CLOUDY    46  45  93 NE7       29.97R FOG
VALPARAISO     CLOUDY    53  49  86 CALM      29.95S
MICHIGAN CITY* CLOUDY    46  46 100 CALM      29.97R
LAPORTE*       CLOUDY    51  48  89 S5        29.96R
KNOX*          CLOUDY    52  34  50 CALM      29.95S
SOUTH BEND     CLOUDY    50  49  96 N5        29.96S FOG
ELKHART*       CLOUDY    54  48  82 N6        29.94F
GOSHEN         CLOUDY    56  48  74 SE6       29.94F
MONTICELLO*    CLOUDY    53  49  85 S5        29.95F
LOGANSPORT*    CLOUDY    54  50  87 S3        29.96F
ROCHESTER*     CLOUDY    55  48  76 S3        29.96F
WARSAW*        CLOUDY    52  46  82 CALM      29.96F
ANGOLA*        CLOUDY    54  45  71 SW6       29.96S
FORT WAYNE     CLOUDY    56  48  74 NW3       29.96F
HUNTINGTON*    CLOUDY    54  49  85 SW5       29.97S
PERU/GRISSOM   CLOUDY    56  53  92 S5        29.94F
MARION*        CLOUDY    56  50  80 CALM      29.96F

$$
INZ028>050-271700-
CENTRAL INDIANA

CITY           SKY/WX    TMP DP  RH WIND       PRES   REMARKS
LAFAYETTE      PTSUNNY   56  51  84 E3        29.95F
KOKOMO*        CLOUDY    56  50  80 S5        29.96F
MUNCIE*        PTSUNNY   59  50  72 VRB5      29.96F
INDIANAPOLIS   CLOUDY    59  50  72 SE12      29.95S

$$
MIZ043>046-050>051-056>058-064>065-071>073-077>080-271700-
SOUTHWEST LOWER MICHIGAN

CITY           SKY/WX    TMP DP  RH WIND       PRES   REMARKS
BATTLE CREEK   CLOUDY    50  48  93 W9        29.97R
BENTON HARBOR  CLOUDY    46  43  89 VRB3      29.95F
COLDWATER*     CLOUDY    52  51  97 W6        29.96S FOG
HILLSDALE*     CLOUDY    52  48  87 SW9       29.96R
HOLLAND        CLOUDY    43  39  86 W6        29.98R
GRAND RAPIDS   CLOUDY    44  42  93 W8        29.95R
KALAMAZOO      CLOUDY    49  45  86 W8        29.97R
STURGIS*       CLOUDY    53  49  85 NW3       29.95F
THREE RIVERS*  CLOUDY    51  51  98 W5        29.96S

$$
OHZ001>008-015>018-024>025-271700-
NORTHWEST OHIO

CITY           SKY/WX    TMP DP  RH WIND       PRES   REMARKS
WAUSEON*       CLOUDY    57  50  77 W9        29.97R
DEFIANCE       CLOUDY    54  48  80 SW8       29.98S
FINDLAY        CLOUDY    57  48  72 W10       29.97S
TOLEDO EXPRESS CLOUDY    55  49  80 SW13      29.97R
TOLEDO METCALF CLOUDY    56  51  84 SW10      29.98R
LIMA           CLOUDY    56  50  80 W9        29.97F

$$
AND FOR LAKE MICHIGAN COASTAL AND OPEN LAKE BUOY OBSERVATIONS

STATION/POSITION TEMP    WIND        PRES    VSBY  WAVE
                 AIR SEA DIR/SP/G                  HT/PER
                 (F)     (DEG/KT/KT) (MB)    (MI)  (FT/S)
CALUMET HARBOR    41      40/  5/  6 1014.2R
MICHIGAN CITY     40      40/  9/ 10   N/A
BURNS HARBOR      42      50/  8/ 11 1015.2
SAINT JOSEPH      43      10/  4/  6 1015.2

$$
&&




USA.gov is the U.S. government's official web portal to all federal, state and local government web resources and services.